User: anonymous   Login
Location: Newark
(15.4608°S, 41.1635°W)
Time: 22:52:23
(UTC+00:00)
Language:

Vanguard 2 - Orbit

View from above orbital plane
View from above orbital plane
View from above satellite
View from above satellite

Ground track
Ground track

The orbit data is extracted from the following two-line orbital elements,

1 00011U 59001A   21211.48582070 -.00000059  00000-0 -27523-4 0  9997
2 00011  32.8691 323.3036 1468102  35.1630 333.7529 11.85801496323422
Epoch (UTC): 30 July 2021 11:39:34
Eccentricity: 0.1468102
inclination: 32.8691°
perigee height: 552 km
apogee height: 2937 km
right ascension of ascending node: 323.3036°
argument of perigee: 35.1630°
revolutions per day: 11.85801496
mean anomaly at epoch: 333.7529°
orbit number at epoch: 32342

The dashed part of the orbit path shows where the satellite is in the earth's shadow,  

DLR